| time (UTC) | temp C | wind direction | speed KPH | gust KPH | rain 1hr cm | rain 24hr cm | rain mn cm | humidity % | barometer mb |
| 20260906224551 | 22 | 300 | 3.2 | 9.7 | 0.00 | 0.00 | 0.00 | 33 | 1025.7 |
| 20260906224518 | 23 | 313 | 0.0 | 0.0 | 0.00 | 0.00 | 0.00 | 31 | 1004.6 |
| 20260906223048 | 22 | 299 | 4.8 | 9.7 | 0.00 | 0.00 | 0.00 | 31 | 1025.7 |
| 20260906223018 | 23 | 311 | 0.0 | 6.4 | 0.00 | 0.00 | 0.00 | 30 | 1004.7 |
| 20260906221549 | 22 | 303 | 3.2 | 9.7 | 0.00 | 0.00 | 0.00 | 31 | 1025.8 |
| 20260906221517 | 24 | 344 | 0.0 | 11.3 | 0.00 | 0.00 | 0.00 | 30 | 1004.6 |
| 20260906220042 | 22 | 320 | 8.0 | 16.1 | 0.00 | 0.00 | 0.00 | 31 | 1025.8 |
| 20260906220016 | 24 | 13 | 0.0 | 9.7 | 0.00 | 0.00 | 0.00 | 30 | 1004.6 |
| 20260906214548 | 22 | 302 | 9.7 | 19.3 | 0.00 | 0.00 | 0.00 | 30 | 1026.1 |
| 20260906214514 | 23 | 320 | 0.0 | 4.8 | 0.00 | 0.00 | 0.00 | 34 | 1004.9 |
| 20260906213054 | 22 | 299 | 8.0 | 14.5 | 0.00 | 0.00 | 0.00 | 30 | 1026.3 |
| 20260906213012 | 22 | 72 | 0.0 | 1.6 | 0.00 | 0.00 | 0.00 | 33 | 1005.2 |
| 20260906211548 | 22 | 297 | 8.0 | 17.7 | 0.00 | 0.00 | 0.00 | 30 | 1026.3 |
| 20260906211511 | 23 | 360 | 0.0 | 9.7 | 0.00 | 0.00 | 0.00 | 30 | 1005.4 |
| 20260906210043 | 23 | 271 | 3.2 | 9.7 | 0.00 | 0.00 | 0.00 | 30 | 1026.2 |
| 20260906210019 | 24 | 53 | 0.0 | 8.0 | 0.00 | 0.00 | 0.00 | 28 | 1005.2 |
| 20260906204558 | 23 | 0 | 3.2 | 9.7 | 0.00 | 0.00 | 0.00 | 29 | 1026.3 |
| 20260906204511 | 23 | 294 | 0.0 | 0.0 | 0.00 | 0.00 | 0.00 | 31 | 1005.4 |
| 20260906203056 | 23 | 322 | 3.2 | 9.7 | 0.00 | 0.00 | 0.00 | 28 | 1026.3 |
| 20260906203017 | 23 | 289 | 0.0 | 3.2 | 0.00 | 0.00 | 0.00 | 29 | 1005.4 |
| 20260906201550 | 22 | 0 | 1.6 | 6.4 | 0.00 | 0.00 | 0.00 | 28 | 1026.5 |
| 20260906201509 | 23 | 296 | 0.0 | 3.2 | 0.00 | 0.00 | 0.00 | 29 | 1005.6 |
| 20260906200046 | 23 | 0 | 1.6 | 6.4 | 0.00 | 0.00 | 0.00 | 28 | 1026.5 |
| 20260906200008 | 24 | 295 | 0.0 | 3.2 | 0.00 | 0.00 | 0.00 | 28 | 1005.7 |
| 20260906194541 | 22 | 294 | 3.2 | 9.7 | 0.00 | 0.00 | 0.00 | 29 | 1026.6 |
| 20260906194507 | 23 | 294 | 0.0 | 6.4 | 0.00 | 0.00 | 0.00 | 27 | 1005.7 |
| 20260906193057 | 22 | 305 | 3.2 | 9.7 | 0.00 | 0.00 | 0.00 | 28 | 1026.8 |
| 20260906193006 | 23 | 55 | 0.0 | 0.0 | 0.00 | 0.00 | 0.00 | 27 | 1005.8 |
| 20260906191547 | 22 | 307 | 1.6 | 9.7 | 0.00 | 0.00 | 0.00 | 28 | 1027.0 |
| 20260906191506 | 23 | 59 | 0.0 | 1.6 | 0.00 | 0.00 | 0.00 | 29 | 1006.1 |
| 20260906190047 | 22 | 0 | 0.0 | 6.4 | 0.00 | 0.00 | 0.00 | 28 | 1027.1 |
| 20260906190002 | 24 | 61 | 0.0 | 4.8 | 0.00 | 0.00 | 0.00 | 26 | 1006.2 |
| 20260906184605 | 25 | 360 | 0.0 | 6.4 | 0.00 | 0.00 | 0.00 | 27 | 1006.4 |
| 20260906184543 | 23 | 0 | 0.0 | 9.7 | 0.00 | 0.00 | 0.00 | 26 | 1027.4 |
| 20260906183057 | 25 | 360 | 0.0 | 1.6 | 0.00 | 0.00 | 0.00 | 27 | 1006.5 |
| 20260906183041 | 23 | 43 | 0.0 | 8.0 | 0.00 | 0.00 | 0.00 | 26 | 1027.7 |
| 20260906181554 | 23 | 0 | 0.0 | 9.7 | 0.00 | 0.00 | 0.00 | 26 | 1027.8 |
| 20260906180109 | 23 | 350 | 0.0 | 4.8 | 0.00 | 0.00 | 0.00 | 29 | 1007.0 |
| 20260906174549 | 23 | 181 | 6.4 | 12.9 | 0.00 | 0.00 | 0.00 | 28 | 1028.3 |
| 20260906174545 | 23 | 348 | 0.0 | 4.8 | 0.00 | 0.00 | 0.00 | 29 | 1007.8 |
| 20260906173048 | 22 | 150 | 0.0 | 12.9 | 0.00 | 0.00 | 0.00 | 28 | 1028.4 |
| 20260906173043 | 22 | 203 | 0.0 | 6.4 | 0.00 | 0.00 | 0.00 | 29 | 1008.0 |
| 20260906171557 | 22 | 0 | 0.0 | 0.0 | 0.00 | 0.00 | 0.00 | 30 | 1028.6 |
| 20260906171538 | 22 | 19 | 0.0 | 3.2 | 0.00 | 0.00 | 0.00 | 31 | 1008.3 |
| 20260906170045 | 21 | 0 | 0.0 | 8.0 | 0.00 | 0.00 | 0.00 | 30 | 1028.8 |
| 20260906170034 | 21 | 335 | 0.0 | 4.8 | 0.00 | 0.00 | 0.00 | 32 | 1008.5 |
| 20260906164551 | 20 | 0 | 0.0 | 4.8 | 0.00 | 0.00 | 0.00 | 31 | 1028.8 |
| 20260906164530 | 20 | 94 | 0.0 | 1.6 | 0.00 | 0.00 | 0.00 | 34 | 1008.7 |
| 20260906163056 | 20 | 309 | 0.0 | 9.7 | 0.00 | 0.00 | 0.00 | 31 | 1028.7 |
| 20260906163026 | 19 | 161 | 0.0 | 3.2 | 0.00 | 0.00 | 0.00 | 33 | 1008.5 |
| 20260906161548 | 18 | 0 | 0.0 | 6.4 | 0.00 | 0.00 | 0.00 | 38 | 1028.8 |
| 20260906161521 | 17 | 161 | 0.0 | 0.0 | 0.00 | 0.00 | 0.00 | 38 | 1008.6 |
| 20260906160051 | 17 | 0 | 0.0 | 4.8 | 0.00 | 0.00 | 0.00 | 41 | 1029.1 |
| 20260906160016 | 16 | 161 | 0.0 | 0.0 | 0.00 | 0.00 | 0.00 | 46 | 1009.0 |
| 20260906154549 | 16 | 162 | 4.8 | 8.0 | 0.00 | 0.00 | 0.00 | 47 | 1029.4 |
| 20260906154513 | 15 | 161 | 0.0 | 0.0 | 0.00 | 0.00 | 0.00 | 49 | 1009.3 |
| 20260906153048 | 15 | 150 | 4.8 | 9.7 | 0.00 | 0.00 | 0.00 | 50 | 1029.5 |
| 20260906153016 | 13 | 161 | 0.0 | 0.0 | 0.00 | 0.00 | 0.00 | 56 | 1009.6 |
| 20260906151546 | 12 | 146 | 3.2 | 6.4 | 0.00 | 0.00 | 0.00 | 56 | 1029.7 |
| 20260906151505 | 11 | 161 | 0.0 | 0.0 | 0.00 | 0.00 | 0.00 | 61 | 1009.9 |
| 20260906150042 | 11 | 157 | 3.2 | 8.0 | 0.00 | 0.00 | 0.00 | 61 | 1029.8 |
| 20260906150001 | 11 | 161 | 0.0 | 6.4 | 0.00 | 0.00 | 0.00 | 59 | 1009.9 |
| 20260906144600 | 10 | 154 | 0.0 | 3.2 | 0.00 | 0.00 | 0.00 | 63 | 1010.1 |
| 20260906144548 | 10 | 131 | 3.2 | 8.0 | 0.00 | 0.00 | 0.00 | 68 | 1029.8 |
| 20260906143058 | 10 | 142 | 1.6 | 6.4 | 0.00 | 0.00 | 0.00 | 64 | 1010.1 |
| 20260906143051 | 7 | 126 | 1.6 | 4.8 | 0.00 | 0.00 | 0.00 | 79 | 1030.0 |
| 20260906141556 | 8 | 184 | 0.0 | 1.6 | 0.00 | 0.00 | 0.00 | 67 | 1010.2 |
| 20260906141549 | 6 | 125 | 1.6 | 6.4 | 0.00 | 0.00 | 0.00 | 83 | 1030.1 |
| 20260906140104 | 8 | 249 | 1.6 | 16.1 | 0.00 | 0.00 | 0.00 | 69 | 1010.4 |
| 20260906140058 | 4 | 115 | 0.0 | 0.0 | 0.00 | 0.00 | 0.00 | 88 | 1030.2 |
| 20260906134552 | 7 | 158 | 0.0 | 0.0 | 0.00 | 0.00 | 0.00 | 71 | 1010.2 |
| 20260906134548 | 5 | 0 | 0.0 | 0.0 | 0.00 | 0.00 | 0.00 | 86 | 1030.1 |
| 20260906133114 | 5 | 0 | 0.0 | 0.0 | 0.00 | 0.00 | 0.00 | 87 | 1029.8 |
| 20260906133101 | 8 | 155 | 0.0 | 3.2 | 0.00 | 0.00 | 0.00 | 69 | 1009.9 |
| 20260906131609 | 8 | 147 | 0.0 | 4.8 | 0.00 | 0.00 | 0.00 | 68 | 1009.9 |
| 20260906131546 | 5 | 0 | 0.0 | 0.0 | 0.00 | 0.00 | 0.00 | 88 | 1029.7 |
| 20260906130105 | 4 | 0 | 0.0 | 0.0 | 0.00 | 0.00 | 0.00 | 88 | 1029.9 |
| 20260906130048 | 8 | 155 | 0.0 | 11.3 | 0.00 | 0.00 | 0.00 | 69 | 1009.9 |
| 20260906124547 | 7 | 249 | 0.0 | 3.2 | 0.00 | 0.00 | 0.00 | 70 | 1009.7 |
| 20260906124543 | 5 | 0 | 0.0 | 0.0 | 0.00 | 0.00 | 0.00 | 88 | 1029.7 |
| 20260906123050 | 4 | 0 | 0.0 | 0.0 | 0.00 | 0.00 | 0.00 | 87 | 1029.4 |
| 20260906123048 | 8 | 200 | 0.0 | 3.2 | 0.00 | 0.00 | 0.00 | 69 | 1009.5 |
| 20260906121547 | 8 | 224 | 0.0 | 1.6 | 0.00 | 0.00 | 0.00 | 68 | 1009.2 |
| 20260906120051 | 5 | 0 | 0.0 | 0.0 | 0.00 | 0.00 | 0.00 | 87 | 1029.2 |
| 20260906120049 | 8 | 241 | 0.0 | 4.8 | 0.00 | 0.00 | 0.00 | 67 | 1009.1 |
| 20260906114548 | 5 | 0 | 0.0 | 0.0 | 0.00 | 0.00 | 0.00 | 87 | 1029.3 |
| 20260906114542 | 8 | 225 | 0.0 | 12.9 | 0.00 | 0.00 | 0.00 | 66 | 1009.2 |
| 20260906113052 | 5 | 0 | 0.0 | 0.0 | 0.00 | 0.00 | 0.00 | 86 | 1029.4 |
| 20260906113041 | 8 | 234 | 0.0 | 4.8 | 0.00 | 0.00 | 0.00 | 66 | 1009.2 |
| 20260906111608 | 5 | 0 | 0.0 | 0.0 | 0.00 | 0.00 | 0.00 | 87 | 1029.4 |
| 20260906111539 | 8 | 181 | 0.0 | 8.0 | 0.00 | 0.00 | 0.00 | 67 | 1009.1 |
| 20260906110047 | 5 | 0 | 0.0 | 0.0 | 0.00 | 0.00 | 0.00 | 88 | 1029.2 |
| 20260906110040 | 8 | 248 | 0.0 | 4.8 | 0.00 | 0.00 | 0.00 | 69 | 1009.0 |
| 20260906104544 | 5 | 0 | 0.0 | 0.0 | 0.00 | 0.00 | 0.00 | 87 | 1029.4 |
| 20260906104539 | 8 | 264 | 0.0 | 4.8 | 0.00 | 0.00 | 0.00 | 70 | 1009.2 |
| 20260906103048 | 6 | 0 | 0.0 | 0.0 | 0.00 | 0.00 | 0.00 | 82 | 1029.0 |
| 20260906103036 | 8 | 165 | 0.0 | 0.0 | 0.00 | 0.00 | 0.00 | 69 | 1009.1 |
| 20260906101548 | 5 | 0 | 0.0 | 0.0 | 0.00 | 0.00 | 0.00 | 85 | 1029.0 |
| 20260906101534 | 9 | 165 | 0.0 | 0.0 | 0.00 | 0.00 | 0.00 | 68 | 1009.0 |
| 20260906100052 | 5 | 0 | 0.0 | 0.0 | 0.00 | 0.00 | 0.00 | 86 | 1029.0 |
| 20260906100035 | 9 | 155 | 0.0 | 3.2 | 0.00 | 0.00 | 0.00 | 66 | 1008.9 |
| 20260906094546 | 5 | 0 | 0.0 | 0.0 | 0.00 | 0.00 | 0.00 | 85 | 1029.0 |
| 20260906094532 | 10 | 205 | 0.0 | 1.6 | 0.00 | 0.00 | 0.00 | 63 | 1008.9 |
| 20260906093050 | 6 | 0 | 0.0 | 0.0 | 0.00 | 0.00 | 0.00 | 83 | 1029.0 |
| 20260906093042 | 10 | 249 | 0.0 | 8.0 | 0.00 | 0.00 | 0.00 | 64 | 1008.8 |
| 20260906091548 | 6 | 0 | 0.0 | 0.0 | 0.00 | 0.00 | 0.00 | 82 | 1028.9 |
| 20260906091531 | 10 | 229 | 0.0 | 4.8 | 0.00 | 0.00 | 0.00 | 62 | 1008.7 |
| 20260906090045 | 6 | 0 | 0.0 | 0.0 | 0.00 | 0.00 | 0.00 | 82 | 1029.0 |
| 20260906090030 | 10 | 190 | 0.0 | 6.4 | 0.00 | 0.00 | 0.00 | 61 | 1008.7 |
| 20260906084549 | 6 | 0 | 0.0 | 0.0 | 0.00 | 0.00 | 0.00 | 82 | 1029.0 |
| 20260906084529 | 10 | 203 | 0.0 | 3.2 | 0.00 | 0.00 | 0.00 | 60 | 1008.7 |
| 20260906083047 | 6 | 0 | 0.0 | 0.0 | 0.00 | 0.00 | 0.00 | 81 | 1029.1 |
| 20260906083029 | 11 | 215 | 0.0 | 4.8 | 0.00 | 0.00 | 0.00 | 59 | 1008.8 |
| 20260906081548 | 6 | 0 | 0.0 | 0.0 | 0.00 | 0.00 | 0.00 | 82 | 1029.2 |
| 20260906081530 | 11 | 213 | 0.0 | 4.8 | 0.00 | 0.00 | 0.00 | 60 | 1008.8 |
| 20260906080048 | 7 | 0 | 0.0 | 0.0 | 0.00 | 0.00 | 0.00 | 79 | 1029.3 |
| 20260906080027 | 11 | 244 | 0.0 | 4.8 | 0.00 | 0.00 | 0.00 | 60 | 1008.9 |
| 20260906074542 | 7 | 0 | 0.0 | 0.0 | 0.00 | 0.00 | 0.00 | 76 | 1029.3 |
| 20260906074528 | 11 | 240 | 0.0 | 8.0 | 0.00 | 0.00 | 0.00 | 61 | 1008.9 |
| 20260906073041 | 7 | 0 | 0.0 | 0.0 | 0.00 | 0.00 | 0.00 | 78 | 1029.4 |
| 20260906073027 | 10 | 232 | 0.0 | 4.8 | 0.00 | 0.00 | 0.00 | 64 | 1008.9 |
| 20260906071551 | 7 | 0 | 0.0 | 0.0 | 0.00 | 0.00 | 0.00 | 78 | 1029.3 |
| 20260906071521 | 9 | 278 | 0.0 | 0.0 | 0.00 | 0.00 | 0.00 | 67 | 1008.9 |
| 20260906070049 | 7 | 0 | 0.0 | 0.0 | 0.00 | 0.00 | 0.00 | 80 | 1029.4 |
| 20260906070018 | 8 | 278 | 0.0 | 0.0 | 0.00 | 0.00 | 0.00 | 71 | 1008.8 |
| 20260906064544 | 8 | 0 | 0.0 | 0.0 | 0.00 | 0.00 | 0.00 | 71 | 1029.2 |
| 20260906064520 | 8 | 278 | 0.0 | 0.0 | 0.00 | 0.00 | 0.00 | 72 | 1008.7 |
| 20260906063049 | 8 | 0 | 0.0 | 0.0 | 0.00 | 0.00 | 0.00 | 72 | 1029.0 |
| 20260906063015 | 9 | 278 | 0.0 | 0.0 | 0.00 | 0.00 | 0.00 | 73 | 1008.5 |
| 20260906061552 | 8 | 0 | 0.0 | 0.0 | 0.00 | 0.00 | 0.00 | 74 | 1029.0 |
| 20260906061513 | 9 | 278 | 0.0 | 0.0 | 0.00 | 0.00 | 0.00 | 72 | 1008.5 |
| 20260906060047 | 8 | 0 | 0.0 | 0.0 | 0.00 | 0.00 | 0.00 | 77 | 1029.1 |
| 20260906060015 | 10 | 278 | 0.0 | 0.0 | 0.00 | 0.00 | 0.00 | 72 | 1008.6 |
| 20260906054556 | 9 | 0 | 0.0 | 0.0 | 0.00 | 0.00 | 0.00 | 70 | 1029.0 |
| 20260906054509 | 10 | 278 | 0.0 | 0.0 | 0.00 | 0.00 | 0.00 | 71 | 1008.5 |
| 20260906053058 | 10 | 0 | 0.0 | 0.0 | 0.00 | 0.00 | 0.00 | 68 | 1029.1 |
| 20260906053016 | 10 | 278 | 0.0 | 0.0 | 0.00 | 0.00 | 0.00 | 69 | 1008.6 |
| 20260906051606 | 10 | 0 | 0.0 | 3.2 | 0.00 | 0.00 | 0.00 | 74 | 1028.9 |
| 20260906051507 | 11 | 278 | 0.0 | 0.0 | 0.00 | 0.00 | 0.00 | 69 | 1008.4 |
| 20260906050048 | 10 | 0 | 0.0 | 0.0 | 0.00 | 0.00 | 0.00 | 71 | 1028.7 |
| 20260906050006 | 11 | 278 | 0.0 | 0.0 | 0.00 | 0.00 | 0.00 | 66 | 1008.4 |
| 20260906044558 | 10 | 0 | 0.0 | 1.6 | 0.00 | 0.00 | 0.00 | 68 | 1028.6 |
| 20260906044504 | 12 | 278 | 0.0 | 0.0 | 0.00 | 0.00 | 0.00 | 66 | 1008.3 |
| 20260906043048 | 10 | 0 | 1.6 | 4.8 | 0.00 | 0.00 | 0.00 | 71 | 1028.6 |
| 20260906043003 | 12 | 278 | 0.0 | 0.0 | 0.00 | 0.00 | 0.00 | 64 | 1008.0 |
| 20260906041551 | 11 | 0 | 0.0 | 3.2 | 0.00 | 0.00 | 0.00 | 67 | 1028.6 |
| 20260906041505 | 13 | 278 | 0.0 | 0.0 | 0.00 | 0.00 | 0.00 | 62 | 1008.0 |
| 20260906040123 | 11 | 0 | 0.0 | 1.6 | 0.00 | 0.00 | 0.00 | 68 | 1028.5 |
| 20260906040002 | 13 | 278 | 0.0 | 0.0 | 0.00 | 0.00 | 0.00 | 61 | 1007.7 |
| 20260906034543 | 11 | 0 | 0.0 | 3.2 | 0.00 | 0.00 | 0.00 | 65 | 1028.4 |
| 20260906034501 | 14 | 278 | 0.0 | 0.0 | 0.00 | 0.00 | 0.00 | 60 | 1007.5 |
| 20260906033102 | 12 | 134 | 0.0 | 3.2 | 0.00 | 0.00 | 0.00 | 62 | 1028.4 |
| 20260906033002 | 15 | 278 | 0.0 | 0.0 | 0.00 | 0.00 | 0.00 | 58 | 1007.5 |
| 20260906031601 | 16 | 278 | 0.0 | 0.0 | 0.00 | 0.00 | 0.00 | 56 | 1007.3 |
| 20260906031546 | 13 | 0 | 0.0 | 0.0 | 0.00 | 0.00 | 0.00 | 59 | 1028.2 |
| 20260906030059 | 16 | 278 | 0.0 | 0.0 | 0.00 | 0.00 | 0.00 | 53 | 1007.1 |
| 20260906030043 | 15 | 0 | 0.0 | 0.0 | 0.00 | 0.00 | 0.00 | 54 | 1028.0 |
| 20260906024605 | 15 | 0 | 0.0 | 0.0 | 0.00 | 0.00 | 0.00 | 54 | 1027.8 |
| 20260906024559 | 17 | 278 | 0.0 | 0.0 | 0.00 | 0.00 | 0.00 | 52 | 1006.9 |
| 20260906023059 | 17 | 278 | 0.0 | 0.0 | 0.00 | 0.00 | 0.00 | 50 | 1006.8 |
| 20260906023057 | 16 | 0 | 0.0 | 1.6 | 0.00 | 0.00 | 0.00 | 52 | 1027.6 |
| 20260906021600 | 17 | 278 | 0.0 | 0.0 | 0.00 | 0.00 | 0.00 | 50 | 1006.5 |
| 20260906021548 | 16 | 0 | 0.0 | 0.0 | 0.00 | 0.00 | 0.00 | 50 | 1027.4 |
| 20260906020057 | 18 | 278 | 0.0 | 1.6 | 0.00 | 0.00 | 0.00 | 46 | 1006.5 |
| 20260906020042 | 16 | 0 | 0.0 | 1.6 | 0.00 | 0.00 | 0.00 | 49 | 1027.3 |
| 20260906014606 | 18 | 278 | 0.0 | 1.6 | 0.00 | 0.00 | 0.00 | 46 | 1006.1 |
| 20260906014549 | 17 | 0 | 0.0 | 0.0 | 0.00 | 0.00 | 0.00 | 47 | 1027.1 |
| 20260906013057 | 19 | 302 | 0.0 | 4.8 | 0.00 | 0.00 | 0.00 | 44 | 1006.3 |
| 20260906013048 | 17 | 0 | 0.0 | 1.6 | 0.00 | 0.00 | 0.00 | 45 | 1027.1 |
| 20260906011610 | 20 | 333 | 0.0 | 0.0 | 0.00 | 0.00 | 0.00 | 43 | 1006.0 |
| 20260906011548 | 18 | 0 | 0.0 | 1.6 | 0.00 | 0.00 | 0.00 | 43 | 1026.9 |
| 20260906010056 | 20 | 333 | 0.0 | 0.0 | 0.00 | 0.00 | 0.00 | 41 | 1005.9 |
| 20260906010049 | 18 | 0 | 0.0 | 0.0 | 0.00 | 0.00 | 0.00 | 44 | 1026.9 |
| 20260906004555 | 20 | 333 | 0.0 | 0.0 | 0.00 | 0.00 | 0.00 | 42 | 1005.9 |
| 20260906004546 | 18 | 0 | 0.0 | 0.0 | 0.00 | 0.00 | 0.00 | 47 | 1026.9 |
| 20260906003055 | 21 | 336 | 0.0 | 1.6 | 0.00 | 0.00 | 0.00 | 38 | 1005.7 |
| 20260906003048 | 18 | 0 | 0.0 | 0.0 | 0.00 | 0.00 | 0.00 | 43 | 1026.8 |
| 20260906001559 | 21 | 342 | 0.0 | 1.6 | 0.00 | 0.00 | 0.00 | 37 | 1005.7 |
| 20260906001549 | 19 | 0 | 0.0 | 0.0 | 0.00 | 0.00 | 0.00 | 42 | 1026.8 |
| 20260906000053 | 22 | 342 | 0.0 | 4.8 | 0.00 | 0.00 | 0.00 | 36 | 1005.5 |
| 20260906000048 | 20 | 0 | 0.0 | 0.0 | 0.00 | 0.00 | 0.00 | 39 | 1026.6 |
| 20260905234552 | 22 | 336 | 0.0 | 3.2 | 0.00 | 0.00 | 0.00 | 34 | 1005.4 |
| 20260905234541 | 20 | 0 | 0.0 | 3.2 | 0.00 | 0.00 | 0.00 | 38 | 1026.5 |
| 20260905233106 | 23 | 336 | 0.0 | 4.8 | 0.00 | 0.00 | 0.00 | 32 | 1005.2 |
| 20260905233056 | 21 | 0 | 1.6 | 9.7 | 0.00 | 0.00 | 0.00 | 36 | 1026.5 |
| 20260905231554 | 24 | 34 | 0.0 | 3.2 | 0.00 | 0.00 | 0.00 | 31 | 1004.7 |
| 20260905231550 | 21 | 300 | 4.8 | 12.9 | 0.00 | 0.00 | 0.00 | 34 | 1026.3 |
| 20260905230052 | 22 | 301 | 3.2 | 14.5 | 0.00 | 0.00 | 0.00 | 33 | 1026.3 |
| 20260905230048 | 25 | 96 | 0.0 | 4.8 | 0.00 | 0.00 | 0.00 | 29 | 1004.6 |